QFA65 YSSY-YMML

Flight info

Callsign QFA65
Flight time N/A
Altitude 40000
Route WOL DCT CB DCT BOYSE
Aircraft A332/H-SDE3GHIJ2J3J5M1RVWXY/LB2D1

Departure

Time N/A
Airport Sydney Kingsford Smith International Airport (YSSY)

Arrival

Time 2026-05-05 20:33
Airport Melbourne Airport (YMML)
Time Latitude Longitude Altitude Speed Heading
2026-05-05 19:35 -35.47773 150.38329 38698 ft 434 kts 229°
2026-05-05 19:35 -35.49896 150.35702 38931 ft 433 kts 232°
2026-05-05 19:35 -35.51175 150.33836 39048 ft 431 kts 237°
2026-05-05 19:35 -35.53350 150.29739 39327 ft 426 kts 244°
2026-05-05 19:36 -35.54307 150.27651 39490 ft 425 kts 245°
2026-05-05 19:36 -35.55681 150.24442 39708 ft 424 kts 247°
2026-05-05 19:36 -35.57424 150.20155 39999 ft 422 kts 248°
2026-05-05 19:36 -35.58719 150.16912 40184 ft 423 kts 248°
2026-05-05 19:37 -35.60023 150.13645 40217 ft 427 kts 248°
2026-05-05 19:37 -35.62233 150.08146 40217 ft 435 kts 247°
2026-05-05 19:38 -35.64941 150.01475 40221 ft 436 kts 247°
2026-05-05 19:38 -35.67654 149.94813 40218 ft 435 kts 247°
2026-05-05 19:39 -35.70359 149.88154 40230 ft 435 kts 247°
2026-05-05 19:39 -35.73063 149.81479 40230 ft 435 kts 247°
2026-05-05 19:40 -35.75739 149.74856 40241 ft 435 kts 247°
2026-05-05 19:40 -35.78424 149.68197 40233 ft 434 kts 247°
2026-05-05 19:41 -35.81107 149.61529 40231 ft 434 kts 247°
2026-05-05 19:41 -35.83717 149.55028 40240 ft 434 kts 247°
2026-05-05 19:42 -35.86326 149.48521 40251 ft 434 kts 247°
2026-05-05 19:42 -35.88992 149.41856 40255 ft 433 kts 247°
2026-05-05 19:43 -35.91655 149.35182 40257 ft 433 kts 247°
2026-05-05 19:43 -35.94311 149.28515 40256 ft 433 kts 247°
2026-05-05 19:44 -35.96968 149.21831 40266 ft 433 kts 248°
2026-05-05 19:44 -35.99619 149.15148 40268 ft 433 kts 248°
2026-05-05 19:45 -36.02247 149.08511 40271 ft 433 kts 248°
2026-05-05 19:45 -36.04890 149.01819 40281 ft 433 kts 248°
2026-05-05 19:46 -36.07526 148.95132 40277 ft 432 kts 248°
2026-05-05 19:46 -36.10157 148.88446 40280 ft 432 kts 248°
2026-05-05 19:47 -36.12782 148.81759 40278 ft 432 kts 248°
2026-05-05 19:47 -36.14478 148.77431 40269 ft 432 kts 248°
2026-05-05 19:48 -36.17080 148.70781 40270 ft 431 kts 248°
2026-05-05 19:48 -36.19709 148.64048 40257 ft 431 kts 248°
2026-05-05 19:49 -36.22296 148.57409 40245 ft 431 kts 248°
2026-05-05 19:49 -36.24896 148.50721 40248 ft 431 kts 248°
2026-05-05 19:50 -36.27497 148.44016 40241 ft 431 kts 248°
2026-05-05 19:50 -36.30088 148.37322 40237 ft 431 kts 248°
2026-05-05 19:51 -36.32663 148.30655 40233 ft 431 kts 248°
2026-05-05 19:51 -36.35249 148.23949 40229 ft 431 kts 248°
2026-05-05 19:52 -36.37835 148.17232 40236 ft 431 kts 248°
2026-05-05 19:52 -36.40408 148.10534 40236 ft 430 kts 248°
2026-05-05 19:53 -36.42978 148.03827 40230 ft 430 kts 248°
2026-05-05 19:53 -36.45545 147.97115 40243 ft 430 kts 248°
2026-05-05 19:54 -36.48089 147.90440 40252 ft 430 kts 248°
2026-05-05 19:54 -36.50646 147.83719 40248 ft 430 kts 248°
2026-05-05 19:55 -36.53197 147.77003 40021 ft 424 kts 248°
2026-05-05 19:55 -36.54453 147.73698 39783 ft 418 kts 248°
2026-05-05 19:55 -36.55690 147.70440 39557 ft 415 kts 248°
2026-05-05 19:55 -36.56904 147.67231 39333 ft 415 kts 248°
2026-05-05 19:56 -36.58133 147.63975 39110 ft 416 kts 248°
2026-05-05 19:56 -36.59360 147.60720 38878 ft 416 kts 248°
2026-05-05 19:56 -36.60589 147.57461 38606 ft 417 kts 248°
2026-05-05 19:56 -36.61821 147.54191 38334 ft 417 kts 248°
2026-05-05 19:57 -36.63052 147.50922 38050 ft 418 kts 248°
2026-05-05 19:57 -36.64288 147.47636 37780 ft 418 kts 248°
2026-05-05 19:57 -36.65517 147.44364 37513 ft 419 kts 248°
2026-05-05 19:57 -36.66753 147.41071 37250 ft 419 kts 248°
2026-05-05 19:58 -36.67988 147.37776 36981 ft 419 kts 248°
2026-05-05 19:58 -36.69219 147.34490 36735 ft 419 kts 248°
2026-05-05 19:58 -36.70453 147.31192 36470 ft 420 kts 248°
2026-05-05 19:58 -36.71689 147.27885 36214 ft 420 kts 247°
2026-05-05 19:59 -36.72907 147.24623 35982 ft 420 kts 247°
2026-05-05 19:59 -36.74142 147.21310 35728 ft 421 kts 247°
2026-05-05 19:59 -36.75375 147.17999 35488 ft 421 kts 247°
2026-05-05 19:59 -36.76606 147.14690 35243 ft 421 kts 247°
2026-05-05 20:00 -36.77841 147.11371 34999 ft 421 kts 247°
2026-05-05 20:00 -36.79075 147.08047 34758 ft 421 kts 247°
2026-05-05 20:00 -36.80290 147.04773 34526 ft 421 kts 247°
2026-05-05 20:00 -36.81519 147.01457 34290 ft 421 kts 246°
2026-05-05 20:01 -36.82752 146.98125 34024 ft 422 kts 246°
2026-05-05 20:01 -36.83985 146.94793 33762 ft 423 kts 247°
2026-05-05 20:01 -36.85220 146.91449 33495 ft 425 kts 247°
2026-05-05 20:01 -36.86460 146.88087 33232 ft 427 kts 247°
2026-05-05 20:02 -36.87705 146.84709 32966 ft 428 kts 247°
2026-05-05 20:02 -36.88956 146.81314 32701 ft 429 kts 247°
2026-05-05 20:02 -36.90202 146.77925 32465 ft 430 kts 247°
2026-05-05 20:02 -36.91454 146.74516 32200 ft 432 kts 247°
2026-05-05 20:03 -36.92693 146.71141 31936 ft 433 kts 247°
2026-05-05 20:03 -36.93950 146.67710 31683 ft 434 kts 247°
2026-05-05 20:03 -36.95207 146.64278 31440 ft 434 kts 248°
2026-05-05 20:03 -36.96462 146.60849 31186 ft 433 kts 248°
2026-05-05 20:04 -36.97714 146.57422 30931 ft 433 kts 248°
2026-05-05 20:04 -36.98963 146.53999 30698 ft 432 kts 248°
2026-05-05 20:04 -37.00208 146.50584 30456 ft 431 kts 248°
2026-05-05 20:04 -37.01453 146.47164 30193 ft 431 kts 248°
2026-05-05 20:05 -37.02694 146.43751 29911 ft 430 kts 248°
2026-05-05 20:05 -37.03928 146.40355 29629 ft 428 kts 248°
2026-05-05 20:05 -37.05161 146.36958 29349 ft 427 kts 248°
2026-05-05 20:05 -37.06379 146.33602 28943 ft 420 kts 248°
2026-05-05 20:06 -37.07579 146.30288 28401 ft 416 kts 248°
2026-05-05 20:06 -37.08769 146.26997 27853 ft 412 kts 248°
2026-05-05 20:06 -37.09946 146.23740 27323 ft 409 kts 248°
2026-05-05 20:06 -37.11113 146.20506 26764 ft 407 kts 248°
2026-05-05 20:07 -37.12275 146.17282 26221 ft 404 kts 249°
2026-05-05 20:07 -37.13431 146.14073 25683 ft 402 kts 249°
2026-05-05 20:07 -37.14563 146.10927 25146 ft 400 kts 249°
2026-05-05 20:07 -37.15705 146.07747 24599 ft 399 kts 249°
2026-05-05 20:08 -37.16843 146.04578 24072 ft 397 kts 249°
2026-05-05 20:08 -37.17972 146.01430 23634 ft 392 kts 249°
2026-05-05 20:08 -37.19064 145.98393 23310 ft 373 kts 249°
2026-05-05 20:08 -37.20100 145.95510 22939 ft 352 kts 249°
2026-05-05 20:09 -37.21080 145.92776 22595 ft 334 kts 249°
2026-05-05 20:09 -37.22006 145.90185 22309 ft 317 kts 250°
2026-05-05 20:09 -37.22885 145.87725 22047 ft 301 kts 250°
2026-05-05 20:09 -37.23725 145.85367 21670 ft 291 kts 250°
2026-05-05 20:10 -37.24542 145.83069 21209 ft 286 kts 250°
2026-05-05 20:10 -37.25345 145.80808 20706 ft 282 kts 249°
2026-05-05 20:10 -37.26427 145.78754 20217 ft 287 kts 227°
2026-05-05 20:10 -37.28139 145.77454 19762 ft 292 kts 200°
2026-05-05 20:11 -37.30220 145.77199 19341 ft 323 kts 175°
2026-05-05 20:11 -37.32513 145.78100 18920 ft 369 kts 153°
2026-05-05 20:11 -37.34600 145.80117 18460 ft 388 kts 132°
2026-05-05 20:11 -37.36064 145.82916 17969 ft 390 kts 112°
2026-05-05 20:12 -37.36724 145.86175 17466 ft 384 kts 92°
2026-05-05 20:12 -37.36477 145.89480 17303 ft 376 kts 74°
2026-05-05 20:12 -37.35786 145.92657 17308 ft 376 kts 71°
2026-05-05 20:12 -37.34951 145.95763 17304 ft 374 kts 67°
2026-05-05 20:13 -37.33915 145.98734 17305 ft 363 kts 55°
2026-05-05 20:13 -37.32308 146.01014 17305 ft 338 kts 34°
2026-05-05 20:13 -37.30289 146.02282 17306 ft 315 kts 11°
2026-05-05 20:13 -37.28172 146.02620 17241 ft 301 kts
2026-05-05 20:14 -37.26133 146.02507 17000 ft 296 kts 348°
2026-05-05 20:14 -37.24190 146.01714 16739 ft 292 kts 330°
2026-05-05 20:14 -37.22607 146.00150 16490 ft 290 kts 310°
2026-05-05 20:14 -37.21600 145.97960 16236 ft 296 kts 289°
2026-05-05 20:15 -37.21316 145.95409 15990 ft 296 kts 270°
2026-05-05 20:15 -37.21666 145.92866 15741 ft 297 kts 255°
2026-05-05 20:15 -37.22393 145.90437 15489 ft 298 kts 250°
2026-05-05 20:15 -37.23207 145.88050 15243 ft 297 kts 249°
2026-05-05 20:16 -37.24022 145.85673 14996 ft 296 kts 250°
2026-05-05 20:16 -37.24831 145.83291 14778 ft 296 kts 250°
2026-05-05 20:16 -37.25645 145.80860 14545 ft 319 kts 250°
2026-05-05 20:16 -37.26539 145.78161 14320 ft 343 kts 250°
2026-05-05 20:17 -37.27463 145.75382 14086 ft 346 kts 250°
2026-05-05 20:17 -37.28389 145.72600 13827 ft 344 kts 250°
2026-05-05 20:17 -37.29295 145.69868 13564 ft 342 kts 250°
2026-05-05 20:17 -37.30287 145.67151 13297 ft 342 kts 243°
2026-05-05 20:18 -37.31579 145.64639 13046 ft 342 kts 237°
2026-05-05 20:18 -37.32968 145.62219 12782 ft 340 kts 236°
2026-05-05 20:18 -37.34364 145.59825 12524 ft 338 kts 236°
2026-05-05 20:18 -37.35750 145.57442 12275 ft 337 kts 236°
2026-05-05 20:19 -37.37124 145.55073 12030 ft 335 kts 236°
2026-05-05 20:19 -37.38492 145.52708 11776 ft 333 kts 236°
2026-05-05 20:19 -37.39850 145.50356 11519 ft 331 kts 236°
2026-05-05 20:19 -37.41203 145.48011 11269 ft 329 kts 237°
2026-05-05 20:20 -37.42544 145.45684 11028 ft 328 kts 236°
2026-05-05 20:20 -37.43878 145.43368 10780 ft 326 kts 236°
2026-05-05 20:20 -37.45328 145.41219 10547 ft 327 kts 227°
2026-05-05 20:20 -37.46990 145.39276 10304 ft 326 kts 224°
2026-05-05 20:21 -37.48690 145.37394 10064 ft 324 kts 224°
2026-05-05 20:21 -37.50375 145.35539 9852 ft 315 kts 224°
2026-05-05 20:21 -37.51985 145.33765 9715 ft 300 kts 224°
2026-05-05 20:21 -37.53516 145.32071 9568 ft 286 kts 224°
2026-05-05 20:22 -37.54994 145.30427 9428 ft 282 kts 225°
2026-05-05 20:22 -37.56464 145.28789 9180 ft 281 kts 225°
2026-05-05 20:22 -37.57925 145.27161 8911 ft 280 kts 225°
2026-05-05 20:22 -37.59379 145.25542 8681 ft 275 kts 225°
2026-05-05 20:23 -37.60796 145.23964 8501 ft 268 kts 225°
2026-05-05 20:23 -37.62190 145.22410 8217 ft 266 kts 225°
2026-05-05 20:23 -37.63556 145.20884 7897 ft 265 kts 225°
2026-05-05 20:23 -37.64931 145.19349 7589 ft 264 kts 224°
2026-05-05 20:24 -37.66306 145.17813 7278 ft 263 kts 225°
2026-05-05 20:24 -37.66982 145.17057 7123 ft 263 kts 224°
2026-05-05 20:24 -37.68264 145.15624 6834 ft 262 kts 224°
2026-05-05 20:24 -37.69625 145.14101 6506 ft 261 kts 224°
2026-05-05 20:25 -37.70544 145.13072 6288 ft 260 kts 224°
2026-05-05 20:25 -37.72331 145.11072 5866 ft 258 kts 224°
2026-05-05 20:25 -37.73670 145.09570 5548 ft 257 kts 224°
2026-05-05 20:25 -37.74553 145.08581 5349 ft 255 kts 224°
2026-05-05 20:26 -37.75877 145.07097 5047 ft 254 kts 224°
2026-05-05 20:26 -37.77199 145.05614 4719 ft 253 kts 224°
2026-05-05 20:26 -37.78509 145.04144 4409 ft 251 kts 224°
2026-05-05 20:26 -37.79808 145.02686 4100 ft 250 kts 224°
2026-05-05 20:27 -37.81013 145.01064 3893 ft 255 kts 238°
2026-05-05 20:27 -37.81709 144.99053 3582 ft 252 kts 255°
2026-05-05 20:27 -37.82123 144.96883 3326 ft 252 kts 259°
2026-05-05 20:27 -37.82471 144.94727 3125 ft 246 kts 261°
2026-05-05 20:28 -37.82824 144.91966 2848 ft 236 kts 262°
2026-05-05 20:28 -37.82990 144.90601 2693 ft 232 kts 262°
2026-05-05 20:28 -37.83067 144.88607 2544 ft 221 kts 281°
2026-05-05 20:28 -37.82356 144.87042 2488 ft 205 kts 320°
2026-05-05 20:29 -37.81101 144.86394 2492 ft 190 kts 345°
2026-05-05 20:29 -37.79801 144.86125 2490 ft 187 kts 349°
2026-05-05 20:29 -37.78562 144.85918 2401 ft 173 kts 349°
2026-05-05 20:29 -37.77422 144.85729 2237 ft 158 kts 348°
2026-05-05 20:30 -37.76372 144.85548 2052 ft 147 kts 348°
2026-05-05 20:30 -37.75344 144.85360 1689 ft 145 kts 348°
2026-05-05 20:30 -37.74400 144.85182 1512 ft 129 kts 347°
2026-05-05 20:30 -37.73550 144.85018 1345 ft 120 kts 349°
2026-05-05 20:31 -37.72725 144.84859 1125 ft 119 kts 350°
2026-05-05 20:31 -37.71908 144.84713 971 ft 118 kts 351°
2026-05-05 20:31 -37.71084 144.84566 837 ft 120 kts 351°
2026-05-05 20:31 -37.70258 144.84400 684 ft 120 kts 351°
2026-05-05 20:32 -37.69435 144.84251 528 ft 119 kts 352°
2026-05-05 20:32 -37.68615 144.84102 393 ft 120 kts 351°
2026-05-05 20:32 -37.67846 144.83960 365 ft 90 kts 352°
2026-05-05 20:32 -37.67388 144.83876 372 ft 58 kts 351°
2026-05-05 20:33 -37.66991 144.83839 386 ft 38 kts 15°
2026-05-05 20:33 -37.66791 144.83940 387 ft 18 kts 21°
2026-05-05 20:33 -37.66725 144.84005 386 ft 8 kts 71°
2026-05-05 20:33 -37.66713 144.84096 383 ft 13 kts 82°
2026-05-05 20:34 -37.66701 144.84200 378 ft 13 kts 81°
2026-05-05 20:34 -37.66693 144.84262 377 ft 5 kts 80°
2026-05-05 20:34 -37.66681 144.84357 371 ft 17 kts 81°
2026-05-05 20:34 -37.66660 144.84533 364 ft 20 kts 82°
2026-05-05 20:35 -37.66640 144.84712 346 ft 19 kts 81°
2026-05-05 20:35 -37.66654 144.84785 354 ft 3 kts 149°
2026-05-05 20:35 -37.66681 144.84803 353 ft 5 kts 154°
2026-05-05 20:35 -37.66721 144.84821 350 ft 7 kts 162°
2026-05-05 20:36 -37.66748 144.84808 350 ft 4 kts 226°
2026-05-05 20:36 -37.66756 144.84787 354 ft 3 kts 243°
2026-05-05 20:36 -37.66762 144.84765 357 ft 3 kts 252°
2026-05-05 20:36 -37.66768 144.84742 355 ft 2 kts 252°
2026-05-05 20:37 -37.66769 144.84739 352 ft 0 kts 252°